sat.trackr.live / text

‹ back to catalog

STARLINK-32037

NORAD 60283 · 2024-132F

PAYLOAD ACTIVE UNKNOWN

§ Identity

Operator
Country
US
Launch date
2024-07-28
Launch site
AFETR
Launch vehicle
Mass (kg)
RCS (m²)

Purposes: comms

External: N2YO · Heavens-Above · Gunter

§ Orbital elements

Epoch: 2026-05-25T03:18:41.167872Z

Period
94.11 min
Inclination
53.1619°
Eccentricity
0.0001195
Mean motion
15.30203812 rev/d
Perigee alt
474.4 km
Apogee alt
476.0 km
Semi-major
6,853.3 km
B*
-5.5845e-5
RAAN
57.4281°
Arg perigee
90.4404°
Mean anomaly
269.6733°
Rev number
10,326

§ Raw data

STARLINK-320371 60283U 24132F   26145.13797648 -.00002013  00000+0 -55845-4 0  99922 60283  53.1619  57.4281 0001195  90.4404 269.6733 15.30203812103263

JSON: /api/v1/satellites/60283 · /tle

For live sub-satellite position, see the globe view (requires WebGL).

§ Visibility from observer

Set your observer location to see the next 7 days of passes ≥ 10°. The values pass through the URL so the page stays shareable.

No JS? Fill the form by hand. The geolocation button needs JavaScript.